Preview of NWS' New Version of Forecast
This preview is not operational and should not be used for support decisions.

Regional Weather Roundup (RWR)

Issued by National Weather Service (NWS)

                            
000
ASPQ40 PGUM 200110
RWRPQ 
WEATHER ROUNDUP FOR THE MARIANAS AND MICRONESIA
NATIONAL WEATHER SERVICE TIYAN GU
1100 AM CHST SAT APR 20 2019

GUZ001>004-200200-
MARIANA ISLANDS-
  
CITY           SKY/WX    TMP DP  RH WIND       PRES   REMARKS
GUAM AIRPORT   CLOUDY    86  70  58 E13       29.91S HX  90           
ANDERSEN AFB   PTSUNNY   86  73  66 E15       29.91F HX  93           
ROTA AIRPORT   MOSUNNY   84  73  70 E16       29.89F HX  91           
TINIAN AP      PTSUNNY   88  75  66 E12       29.89F HX  97           
SAIPAN AP      PTSUNNY   84  75  74 NE12      29.90F HX  92           

$$

PMZ161-200200-
REPUBLIC OF PALAU-
  
CITY           SKY/WX    TMP DP  RH WIND       PRES   REMARKS
KOROR AP       PTSUNNY   84  75  74 E13G23    29.82F HX  92           
KOROR WSO      NOT AVBL                                               

$$

PMZ171>174-200200-
FEDERATED STATES OF MICRONESIA-
  
CITY           SKY/WX    TMP DP  RH WIND       PRES   REMARKS
YAP AIRPORT    PTSUNNY   88  75  66 E10       29.85F HX  97           
CHUUK AP       CLOUDY    88  84  89 NE12      29.85R HX 112           
POHNPEI AP     CLOUDY    86  79  79 SE5       29.84S HX  99           
POHNPEI WSO    CLOUDY    84  75  74 E6        29.86S HX  92           
KOSRAE AP      CLOUDY    84  77  79 E7        29.82F HX  94           

$$

PMZ181-200200-
REPUBLIC OF THE MARSHALL ISLANDS-
  
CITY           SKY/WX    TMP DP  RH WIND       PRES   REMARKS
KWAJALEIN AP   MOSUNNY   86  75  70 E13       29.84F HX  95           
MAJURO AP      NOT AVBL                                               
MAJURO WSO     PTSUNNY   84  75  74 E8        29.81F HX  92           

$$